Location: Gand�
(15.0971°N, 12.6564°W)
Time: 14:42:23
(UTC+00:00)

CZ-3A R/B - Pass Details

Date: 07 August 2020
Orbit: 374 x 34995 km, 24.8° (Epoch: 20 September)

Event Time Altitude Azimuth Distance (km) Brightness Sun altitude
Exits shadow 04:06:39 56° 332° (NNW) 1,420 3.7 -33.5°
Maximum altitude 04:07:17 59° 356° (N) 1,514 3.9 -33.4°
Drops below altitude 10° 13:11:01 10° 126° (SE) 18,556 9.6 86.3°
Sets 13:26:24 0° 124° (SE) 16,165 9.2 82.7°
